Content
SEND FEEDBACK

Daily
Averages
Monthly
Summary
United States of America

ORANGE, TEXAS


Home > North America > United States > Texas
Elevation: 1 foot     Latitude: 30 07N     Longitude: 093 47W

WEATHER
 
SELECT A DAY
Number of Records: 110,785;   Date Range: 8/25/05 - 9/21/14
 
SHARE

PRINT THIS DATA

[ ← Previous Day ]
WEATHER ALMANAC - MARCH 22, 2013
[ Next Day → ]
[ °C ]   °F
Weather ElementAverageHighLow
Temperature70.4 °F77.5 °F (1:15 pm)65.3 °F (12:35 am)
Dewpoint66.2 °F69.3 °F (3:35 pm)59 °F (12:35 am)
Humidity86.9 %96 % (11:35 pm)75 % (1:15 pm)
Barometer29.75 in29.80 in (12:35 am)29.70 in (4:35 am)
Wind Speed8.9 mph17.3 mph (12:55 pm)
Wind Gust25.3 mph (3:15 pm)
Weather ElementAverage
Visibility8 mi
Wind DirectionSSE (158.8 °)

Weather ElementTotal
Precipitation---
Cooling Degree Days6.4 (Base 65)
Growing Degree Days21.4 (Base 50)
Averaged from 69 records on March 22, 2013
WEATHER CONDITIONS BREAKOUT
WIND DIRECTION BREAKOUT
WEATHER BY HOUR - MARCH 22, 2013
[ °C ]   °F
Local TimeTemperatureDewpointHumidityBarometerVisibilityWind DirectionWind SpeedGust SpeedPrecipitationEventsConditions
12:35 AM65.3 °F59.0 °F80 %29.80 in10.0 miESE (110°)9.2 mphOvercast
12:55 AM65.3 °F59.5 °F82 %29.79 in10.0 miESE (110°)9.2 mphOvercast
1:15 AM65.3 °F59.9 °F83 %29.79 in10.0 miEast (100°)4.6 mphOvercast
1:35 AM65.3 °F60.4 °F84 %29.78 in10.0 miSouth (170°)4.6 mphOvercast
1:55 AM65.7 °F60.8 °F84 %29.76 in10.0 miSE (130°)6.9 mphOvercast
2:15 AM65.3 °F61.0 °F86 %29.75 in10.0 miESE (120°)9.2 mphOvercast
2:35 AM65.5 °F61.5 °F87 %29.75 in10.0 miSE (130°)9.2 mphOvercast
2:55 AM65.5 °F61.9 °F88 %29.74 in10.0 miESE (120°)6.9 mphOvercast
3:15 AM65.5 °F62.6 °F90 %29.73 in10.0 miSE (140°)8.1 mphOvercast
3:35 AM65.3 °F62.6 °F91 %29.73 in10.0 miSSE (150°)4.6 mphOvercast
3:55 AM65.7 °F62.8 °F90 %29.72 in10.0 miSSE (150°)5.8 mphOvercast
4:15 AM65.7 °F63.0 °F91 %29.71 in10.0 miSSE (150°)6.9 mphOvercast
4:35 AM65.8 °F63.1 °F91 %29.70 in10.0 miSSE (150°)8.1 mphOvercast
4:55 AM65.7 °F63.1 °F92 %29.70 in10.0 miSSE (150°)8.1 mphOvercast
5:15 AM65.5 °F63.3 °F93 %29.70 in7.0 miSSE (160°)8.1 mphOvercast
5:35 AM65.8 °F63.7 °F93 %29.71 in10.0 miSSE (160°)8.1 mphOvercast
5:55 AM66.2 °F63.9 °F92 %29.72 in7.0 miSouth (170°)8.1 mphOvercast
6:15 AM66.4 °F64.4 °F93 %29.73 in7.0 miSouth (170°)8.1 mphOvercast
6:35 AM66.7 °F64.4 °F92 %29.74 in7.0 miSouth (170°)8.1 mphOvercast
6:55 AM67.1 °F64.6 °F92 %29.74 in7.0 miSouth (170°)8.1 mphOvercast
7:15 AM67.3 °F64.8 °F92 %29.75 in7.0 miSouth (180°)9.2 mphOvercast
7:35 AM67.1 °F64.8 °F92 %29.75 in7.0 miSouth (170°)8.1 mphOvercast
7:55 AM67.3 °F65.3 °F93 %29.75 in5.0 miSSE (160°)6.9 mphOvercast
8:15 AM68.0 °F65.5 °F92 %29.76 in5.0 miSouth (170°)6.9 mphOvercast
8:35 AM68.2 °F65.7 °F92 %29.77 in7.0 miSouth (170°)6.9 mphOvercast
8:55 AM68.7 °F66.0 °F91 %29.78 in7.0 miSSE (160°)8.1 mphOvercast
9:15 AM69.1 °F66.2 °F91 %29.77 in7.0 miSouth (170°)8.1 mphOvercast
9:35 AM69.8 °F66.6 °F89 %29.77 in7.0 miSouth (170°)12.7 mph17.3 mphOvercast
9:55 AM71.2 °F67.1 °F87 %29.78 in7.0 miSouth (170°)12.7 mph17.3 mphOvercast
10:15 AM71.6 °F67.3 °F86 %29.79 in7.0 miSouth (170°)10.4 mph18.4 mphOvercast
10:35 AM70.7 °F67.1 °F88 %29.79 in7.0 miSouth (180°)11.5 mph16.1 mphOvercast
10:55 AM71.4 °F67.5 °F87 %29.80 in7.0 miCalmOvercast
11:15 AM72.5 °F68.0 °F86 %29.80 in7.0 miSouth (190°)9.2 mphOvercast
11:35 AM74.5 °F68.4 °F81 %29.80 in7.0 miSouth (190°)9.2 mph17.3 mphOvercast
11:55 AM73.8 °F68.0 °F82 %29.80 in7.0 miSouth (170°)12.7 mph16.1 mphOvercast
12:15 PM73.9 °F68.5 °F83 %29.79 in7.0 miSouth (170°)11.5 mph19.6 mphOvercast
12:35 PM76.6 °F68.9 °F77 %29.78 in7.0 miSouth (180°)9.2 mphMostly Cloudy
12:55 PM76.3 °F68.4 °F76 %29.77 in10.0 miSouth (180°)17.3 mph21.9 mphMostly Cloudy
1:15 PM77.5 °F69.1 °F75 %29.77 in10.0 miSouth (190°)16.1 mph20.7 mphMostly Cloudy
1:35 PM77.0 °F68.9 °F76 %29.75 in7.0 miSouth (170°)12.7 mph21.9 mphMostly Cloudy
1:55 PM76.6 °F68.9 °F77 %29.75 in7.0 miSouth (170°)17.3 mph20.7 mphOvercast
2:15 PM77.0 °F68.9 °F76 %29.74 in10.0 miSouth (170°)16.1 mph21.9 mphOvercast
2:35 PM76.5 °F68.9 °F77 %29.73 in10.0 miSouth (180°)15.0 mph20.7 mphOvercast
3:15 PM75.6 °F68.9 °F80 %29.72 in7.0 miSouth (170°)16.1 mph25.3 mphOvercast
3:35 PM76.3 °F69.3 °F79 %29.72 in10.0 miSouth (170°)13.8 mph18.4 mphOvercast
3:55 PM76.3 °F69.3 °F79 %29.72 in10.0 miSouth (170°)15.0 mphOvercast
4:15 PM76.1 °F68.9 °F78 %29.71 in10.0 miSouth (180°)11.5 mph21.9 mphOvercast
4:35 PM76.6 °F68.9 °F77 %29.72 in7.0 miSouth (180°)12.7 mph21.9 mphOvercast
4:55 PM75.6 °F68.4 °F78 %29.72 in10.0 miSouth (190°)16.1 mph23.0 mphOvercast
5:15 PM75.2 °F68.5 °F80 %29.72 in10.0 miSouth (180°)13.8 mph17.3 mphOvercast
5:35 PM74.7 °F68.4 °F81 %29.72 in10.0 miSouth (190°)12.7 mph18.4 mphOvercast
5:55 PM74.7 °F68.5 °F81 %29.72 in10.0 miSouth (170°)12.7 mph16.1 mphOvercast
6:15 PM73.8 °F68.4 °F83 %29.72 in10.0 miSouth (170°)11.5 mph18.4 mphOvercast
6:35 PM73.2 °F68.4 °F85 %29.73 in7.0 miSouth (180°)9.2 mphOvercast
6:55 PM72.9 °F68.4 °F86 %29.73 in10.0 miSouth (190°)10.4 mphMostly Cloudy
7:15 PM71.8 °F68.2 °F88 %29.73 in7.0 miSouth (190°)6.9 mphMostly Cloudy
7:35 PM70.9 °F68.0 °F91 %29.74 in7.0 miSouth (180°)6.9 mphScattered Clouds
7:55 PM70.3 °F68.0 °F92 %29.75 in7.0 miSouth (180°)4.6 mphClear
8:15 PM70.0 °F68.0 °F93 %29.75 in7.0 miSouth (180°)4.6 mphClear
8:35 PM69.8 °F67.6 °F93 %29.75 in7.0 miSouth (190°)3.5 mphClear
8:55 PM69.1 °F67.3 °F94 %29.76 in7.0 miCalmScattered Clouds
9:15 PM68.0 °F66.6 °F95 %29.77 in5.0 miCalmMostly Cloudy
9:35 PM69.4 °F68.0 °F95 %29.77 in7.0 miSouth (180°)3.5 mphOvercast
9:55 PM70.2 °F68.4 °F94 %29.77 in7.0 miSouth (170°)4.6 mphOvercast
10:15 PM70.0 °F68.4 °F95 %29.78 in7.0 miSouth (170°)4.6 mphOvercast
10:35 PM69.4 °F68.0 °F95 %29.78 in5.0 miSSE (160°)4.6 mphOvercast
10:55 PM69.3 °F67.6 °F95 %29.78 in7.0 miSouth (180°)4.6 mphOvercast
11:35 PM69.1 °F68.0 °F96 %29.78 in5.0 miSSE (160°)6.9 mphOvercast
11:55 PM69.1 °F68.0 °F96 %29.78 in5.0 miSouth (170°)3.5 mphOvercast
Hourly data recorded from KORG, located miles away from Orange, Texas







STORIES FROM OUR PARTNERS